{"data":{"norad_id":47935,"epoch":"2026-09-20T22:22:05.912832Z","epoch_age_seconds":47571,"freshness":"FRESH","line1":"1 47935U 21022D   26263.93201288  .00000469  00000+0  43295-4 0  9992","line2":"2 47935  97.5232 145.1395 0010244   2.0082 358.1180 14.99056833300297","mean_motion":14.99056833,"eccentricity":0.0010244,"inclination_deg":97.5232,"raan_deg":145.1395,"arg_perigee_deg":2.0082,"mean_anomaly_deg":358.118,"bstar":4.3295e-5,"rev_number":30029,"period_min":96.06040066661,"perigee_km":562.69165205582,"apogee_km":576.92660408301,"semimajor_km":6947.9461280694,"source":"CELESTRAK","updated_at":"2026-09-21T09:00:07.620728Z"}}